Tracking 18957 objects as of 23-Jan-2018
HD Live streaming from Space Station
objects crossing your sky now

FENGYUN 1C DEB

Track FENGYUN 1C DEB now!
10-day predictions


NORAD ID: 37475
Int'l Code: 1999-025EJV
Perigee: 741.4 km
Apogee: 911.0 km
Inclination: 98.9 °
Period: 101.3 minutes
Semi major axis: 7197 km
RCS: 0.0012 m2 (small)
Launch date: May 10, 1999
Source: People's Republic of China (PRC)
Launch site: Taiyaun Space Center, China (TSC)

Note: This is SATELLITE DEBRIS
aabbcc
Your satellite tracking list
Your tracking list is empty




NASA's NSSDC Master Catalog

Two Line Element Set (TLE):
1 37475U 99025EJV 18021.17301508 +.00001011 +00000-0 +44673-3 0  9998
2 37475 098.9175 107.2375 0117808 198.4864 161.2015 14.21852836236239
Source of the keplerian elements: AFSPC